Location: Centreville
(38.8333°N, 77.4295°W)
Time: 03:41:40
(UTC-05:00)

JUGNU - Pass Details

Date: 01 November 2019
Orbit: 836 x 864 km, 20.0° (Epoch: 21 November)

Event Time Altitude Azimuth Distance (km) Brightness Sun altitude
Rises 19:49:41 0° 231° (SW) 3,371 ? -20.0°
Reaches altitude 10° 19:54:22 10° 198° (SSW) 2,443 ? -20.9°
Maximum altitude 19:55:59 11° 182° (S) 2,365 ? -21.2°
Drops below altitude 10° 19:57:36 10° 165° (SSE) 2,447 ? -21.5°
Enters shadow 19:58:35 - 156° (SSE) 2,571 ? -21.7°
